| time (UTC) | temp C | wind direction | speed KPH | gust KPH | rain 1hr cm | rain 24hr cm | rain mn cm | humidity % | barometer mb |
| 20260504234817 | 26 | 304 | 11.3 | 12.9 | 0.00 | 0.00 | 0.00 | 26 | 1004.0 |
| 20260504234314 | 26 | 280 | 11.3 | 12.9 | 0.00 | 0.00 | 0.00 | 24 | 1004.0 |
| 20260504233811 | 26 | 304 | 9.7 | 9.7 | 0.00 | 0.00 | 0.00 | 24 | 1003.7 |
| 20260504233306 | 27 | 314 | 11.3 | 12.9 | 0.00 | 0.00 | 0.00 | 23 | 1003.9 |
| 20260504232803 | 27 | 299 | 9.7 | 12.9 | 0.00 | 0.00 | 0.00 | 23 | 1003.8 |
| 20260504232301 | 27 | 306 | 9.7 | 11.3 | 0.00 | 0.00 | 0.00 | 23 | 1004.0 |
| 20260504231757 | 27 | 289 | 16.1 | 20.9 | 0.00 | 0.00 | 0.00 | 22 | 1003.7 |
| 20260504231254 | 27 | 299 | 14.5 | 14.5 | 0.00 | 0.00 | 0.00 | 23 | 1004.0 |
| 20260504230750 | 27 | 302 | 6.4 | 6.4 | 0.00 | 0.00 | 0.00 | 23 | 1003.9 |
| 20260504230248 | 27 | 279 | 4.8 | 6.4 | 0.00 | 0.00 | 0.00 | 24 | 1003.9 |
| 20260504225747 | 27 | 301 | 11.3 | 12.9 | 0.00 | 0.00 | 0.00 | 23 | 1003.7 |
| 20260504225243 | 27 | 310 | 11.3 | 12.9 | 0.00 | 0.00 | 0.00 | 24 | 1004.0 |
| 20260504224740 | 27 | 302 | 14.5 | 16.1 | 0.00 | 0.00 | 0.00 | 24 | 1003.9 |
| 20260504224237 | 27 | 349 | 6.4 | 6.4 | 0.00 | 0.00 | 0.00 | 24 | 1004.0 |
| 20260504223733 | 27 | 303 | 8.0 | 9.7 | 0.00 | 0.00 | 0.00 | 26 | 1003.9 |
| 20260504223229 | 26 | 308 | 17.7 | 17.7 | 0.00 | 0.00 | 0.00 | 23 | 1003.9 |
| 20260504222726 | 27 | 327 | 17.7 | 24.1 | 0.00 | 0.00 | 0.00 | 23 | 1003.8 |
| 20260504222223 | 27 | 313 | 14.5 | 20.9 | 0.00 | 0.00 | 0.00 | 23 | 1003.7 |
| 20260504221720 | 27 | 332 | 17.7 | 17.7 | 0.00 | 0.00 | 0.00 | 25 | 1003.7 |
| 20260504221217 | 27 | 317 | 22.5 | 25.7 | 0.00 | 0.00 | 0.00 | 23 | 1003.7 |
| 20260504220714 | 27 | 315 | 16.1 | 17.7 | 0.00 | 0.00 | 0.00 | 24 | 1003.7 |
| 20260504220211 | 27 | 299 | 17.7 | 20.9 | 0.00 | 0.00 | 0.00 | 23 | 1003.6 |
| 20260504215708 | 27 | 303 | 19.3 | 27.4 | 0.00 | 0.00 | 0.00 | 24 | 1003.7 |
| 20260504215205 | 27 | 309 | 11.3 | 14.5 | 0.00 | 0.00 | 0.00 | 27 | 1003.6 |
| 20260504214700 | 28 | 293 | 11.3 | 14.5 | 0.00 | 0.00 | 0.00 | 24 | 1003.5 |
| 20260504214157 | 27 | 280 | 14.5 | 22.5 | 0.00 | 0.00 | 0.00 | 25 | 1003.6 |
| 20260504213654 | 28 | 308 | 19.3 | 22.5 | 0.00 | 0.00 | 0.00 | 25 | 1003.5 |
| 20260504213151 | 28 | 345 | 11.3 | 11.3 | 0.00 | 0.00 | 0.00 | 28 | 1003.6 |
| 20260504212647 | 28 | 357 | 8.0 | 14.5 | 0.00 | 0.00 | 0.00 | 26 | 1003.5 |
| 20260504212144 | 27 | 278 | 4.8 | 4.8 | 0.00 | 0.00 | 0.00 | 26 | 1003.6 |
| 20260504211642 | 26 | 316 | 6.4 | 6.4 | 0.00 | 0.00 | 0.00 | 28 | 1003.6 |
| 20260504211137 | 26 | 301 | 8.0 | 9.7 | 0.00 | 0.00 | 0.00 | 28 | 1003.6 |
| 20260504210636 | 26 | 301 | 12.9 | 12.9 | 0.00 | 0.00 | 0.00 | 27 | 1003.6 |
| 20260504210132 | 27 | 285 | 22.5 | 24.1 | 0.00 | 0.00 | 0.00 | 26 | 1003.6 |
| 20260504205629 | 28 | 289 | 14.5 | 16.1 | 0.00 | 0.00 | 0.00 | 26 | 1003.6 |
| 20260504205126 | 27 | 294 | 8.0 | 9.7 | 0.00 | 0.00 | 0.00 | 27 | 1003.7 |
| 20260504204625 | 27 | 300 | 12.9 | 14.5 | 0.00 | 0.00 | 0.00 | 30 | 1003.7 |
| 20260504204124 | 27 | 294 | 14.5 | 14.5 | 0.00 | 0.00 | 0.00 | 28 | 1003.8 |
| 20260504203622 | 27 | 300 | 16.1 | 16.1 | 0.00 | 0.00 | 0.00 | 28 | 1003.7 |
| 20260504203119 | 27 | 310 | 20.9 | 22.5 | 0.00 | 0.00 | 0.00 | 27 | 1003.7 |
| 20260504202614 | 27 | 292 | 11.3 | 12.9 | 0.00 | 0.00 | 0.00 | 29 | 1003.9 |
| 20260504202111 | 27 | 295 | 14.5 | 22.5 | 0.00 | 0.00 | 0.00 | 31 | 1003.6 |
| 20260504201608 | 27 | 304 | 6.4 | 9.7 | 0.00 | 0.00 | 0.00 | 32 | 1003.9 |
| 20260504201106 | 26 | 328 | 11.3 | 11.3 | 0.00 | 0.00 | 0.00 | 33 | 1003.9 |
| 20260504200602 | 26 | 318 | 9.7 | 11.3 | 0.00 | 0.00 | 0.00 | 31 | 1004.0 |
| 20260504200059 | 27 | 293 | 11.3 | 14.5 | 0.00 | 0.00 | 0.00 | 30 | 1003.7 |
| 20260504195555 | 27 | 315 | 24.1 | 25.7 | 0.00 | 0.00 | 0.00 | 30 | 1003.8 |
| 20260504195051 | 27 | 297 | 14.5 | 14.5 | 0.00 | 0.00 | 0.00 | 28 | 1003.8 |
| 20260504194548 | 27 | 236 | 12.9 | 14.5 | 0.00 | 0.00 | 0.00 | 30 | 1003.8 |
| 20260504194043 | 27 | 250 | 12.9 | 14.5 | 0.00 | 0.00 | 0.00 | 31 | 1003.9 |
| 20260504193540 | 27 | 260 | 8.0 | 11.3 | 0.00 | 0.00 | 0.00 | 31 | 1003.9 |
| 20260504193039 | 27 | 336 | 4.8 | 4.8 | 0.00 | 0.00 | 0.00 | 35 | 1003.9 |
| 20260504192537 | 27 | 251 | 14.5 | 14.5 | 0.00 | 0.00 | 0.00 | 31 | 1004.1 |
| 20260504192035 | 27 | 237 | 3.2 | 3.2 | 0.00 | 0.00 | 0.00 | 35 | 1004.1 |
| 20260504191532 | 27 | 272 | 11.3 | 14.5 | 0.00 | 0.00 | 0.00 | 33 | 1004.0 |
| 20260504191028 | 26 | 233 | 6.4 | 9.7 | 0.00 | 0.00 | 0.00 | 34 | 1004.0 |
| 20260504190525 | 27 | 267 | 14.5 | 17.7 | 0.00 | 0.00 | 0.00 | 33 | 1004.3 |
| 20260504190021 | 26 | 251 | 6.4 | 9.7 | 0.00 | 0.00 | 0.00 | 36 | 1004.0 |
| 20260504185518 | 27 | 281 | 9.7 | 11.3 | 0.00 | 0.00 | 0.00 | 34 | 1004.3 |
| 20260504185015 | 26 | 228 | 4.8 | 6.4 | 0.00 | 0.00 | 0.00 | 35 | 1004.3 |
| 20260504184510 | 26 | 225 | 9.7 | 11.3 | 0.00 | 0.00 | 0.00 | 34 | 1004.2 |
| 20260504184006 | 26 | 220 | 11.3 | 14.5 | 0.00 | 0.00 | 0.00 | 36 | 1004.3 |
| 20260504183503 | 26 | 292 | 14.5 | 16.1 | 0.00 | 0.00 | 0.00 | 38 | 1004.4 |
| 20260504183001 | 26 | 239 | 6.4 | 6.4 | 0.00 | 0.00 | 0.00 | 37 | 1004.1 |
| 20260504182457 | 26 | 281 | 8.0 | 9.7 | 0.00 | 0.00 | 0.00 | 36 | 1004.4 |
| 20260504181955 | 26 | 205 | 11.3 | 12.9 | 0.00 | 0.00 | 0.00 | 35 | 1004.6 |
| 20260504181452 | 26 | 270 | 9.7 | 12.9 | 0.00 | 0.00 | 0.00 | 36 | 1004.3 |
| 20260504180950 | 25 | 257 | 9.7 | 16.1 | 0.00 | 0.00 | 0.00 | 37 | 1004.3 |
| 20260504180449 | 25 | 207 | 12.9 | 16.1 | 0.00 | 0.00 | 0.00 | 37 | 1004.5 |
| 20260504175947 | 25 | 225 | 11.3 | 16.1 | 0.00 | 0.00 | 0.00 | 38 | 1004.3 |
| 20260504175443 | 26 | 239 | 16.1 | 17.7 | 0.00 | 0.00 | 0.00 | 37 | 1004.4 |
| 20260504174941 | 25 | 231 | 9.7 | 12.9 | 0.00 | 0.00 | 0.00 | 40 | 1004.6 |
| 20260504174439 | 25 | 241 | 6.4 | 6.4 | 0.00 | 0.00 | 0.00 | 40 | 1004.6 |
| 20260504173936 | 25 | 248 | 8.0 | 9.7 | 0.00 | 0.00 | 0.00 | 40 | 1004.5 |
| 20260504173432 | 25 | 245 | 12.9 | 16.1 | 0.00 | 0.00 | 0.00 | 39 | 1004.7 |
| 20260504172930 | 25 | 239 | 12.9 | 14.5 | 0.00 | 0.00 | 0.00 | 40 | 1004.6 |
| 20260504172425 | 25 | 242 | 9.7 | 11.3 | 0.00 | 0.00 | 0.00 | 40 | 1004.8 |
| 20260504171922 | 25 | 203 | 11.3 | 14.5 | 0.00 | 0.00 | 0.00 | 40 | 1004.8 |
| 20260504171419 | 24 | 230 | 8.0 | 9.7 | 0.00 | 0.00 | 0.00 | 40 | 1004.6 |
| 20260504170916 | 24 | 239 | 9.7 | 9.7 | 0.00 | 0.00 | 0.00 | 41 | 1004.8 |
| 20260504170413 | 24 | 243 | 11.3 | 12.9 | 0.00 | 0.00 | 0.00 | 41 | 1004.7 |
| 20260504160331 | 22 | 254 | 9.7 | 9.7 | 0.00 | 0.00 | 0.00 | 46 | 1005.1 |
| 20260504150756 | 21 | 251 | 12.9 | 16.1 | 0.00 | 0.00 | 0.00 | 45 | 1005.1 |
| 20260504150253 | 21 | 226 | 6.4 | 11.3 | 0.00 | 0.00 | 0.00 | 47 | 1004.9 |
| 20260504141223 | 19 | 245 | 11.3 | 12.9 | 0.00 | 0.00 | 0.00 | 52 | 1005.2 |
| 20260504140719 | 19 | 209 | 14.5 | 14.5 | 0.00 | 0.00 | 0.00 | 52 | 1005.2 |
| 20260504140215 | 18 | 267 | 6.4 | 9.7 | 0.00 | 0.00 | 0.00 | 55 | 1005.2 |
| 20260504130643 | 15 | 210 | 4.8 | 6.4 | 0.00 | 0.00 | 0.00 | 64 | 1005.5 |
| 20260504130140 | 15 | 205 | 3.2 | 3.2 | 0.00 | 0.00 | 0.00 | 66 | 1005.5 |
| 20260504120104 | 12 | 183 | 4.8 | 4.8 | 0.00 | 0.00 | 0.00 | 69 | 1005.8 |
| 20260504110531 | 11 | 126 | 1.6 | 1.6 | 0.00 | 0.00 | 0.00 | 67 | 1005.7 |
| 20260504100453 | 10 | 149 | 0.0 | 1.6 | 0.00 | 0.00 | 0.00 | 73 | 1006.4 |
| 20260504081846 | 9 | 204 | 0.0 | 0.0 | 0.00 | 0.00 | 0.00 | 86 | 1008.1 |
| 20260504081343 | 8 | 204 | 1.6 | 1.6 | 0.00 | 0.00 | 0.00 | 88 | 1008.2 |
| 20260504080839 | 8 | 204 | 0.0 | 0.0 | 0.00 | 0.00 | 0.00 | 87 | 1008.3 |
| 20260504080336 | 9 | 204 | 1.6 | 1.6 | 0.00 | 0.00 | 0.00 | 86 | 1008.2 |
| 20260504070303 | 11 | 164 | 0.0 | 0.0 | 0.00 | 0.00 | 0.00 | 74 | 1009.1 |
| 20260504060224 | 11 | 164 | 0.0 | 0.0 | 0.00 | 0.00 | 0.00 | 81 | 1010.1 |
| 20260504050652 | 11 | 211 | 1.6 | 1.6 | 0.00 | 0.00 | 0.00 | 77 | 1010.1 |
| 20260504050149 | 12 | 212 | 0.0 | 0.0 | 0.00 | 0.00 | 0.00 | 72 | 1010.2 |
| 20260504045646 | 12 | 212 | 0.0 | 0.0 | 0.00 | 0.00 | 0.00 | 71 | 1010.4 |
| 20260504045146 | 12 | 211 | 0.0 | 0.0 | 0.00 | 0.00 | 0.00 | 71 | 1010.3 |
| 20260504044644 | 12 | 212 | 0.0 | 0.0 | 0.00 | 0.00 | 0.00 | 68 | 1010.3 |
| 20260504044140 | 13 | 211 | 0.0 | 0.0 | 0.00 | 0.00 | 0.00 | 66 | 1010.2 |
| 20260504043637 | 13 | 212 | 0.0 | 0.0 | 0.00 | 0.00 | 0.00 | 63 | 1010.4 |
| 20260504043135 | 12 | 212 | 0.0 | 0.0 | 0.00 | 0.00 | 0.00 | 65 | 1010.3 |
| 20260504042632 | 12 | 212 | 0.0 | 0.0 | 0.00 | 0.00 | 0.00 | 67 | 1010.3 |
| 20260504042129 | 12 | 212 | 0.0 | 0.0 | 0.00 | 0.00 | 0.00 | 68 | 1010.4 |
| 20260504041624 | 12 | 211 | 0.0 | 0.0 | 0.00 | 0.00 | 0.00 | 69 | 1010.5 |
| 20260504041121 | 12 | 211 | 0.0 | 0.0 | 0.00 | 0.00 | 0.00 | 70 | 1010.4 |
| 20260504040618 | 12 | 212 | 0.0 | 0.0 | 0.00 | 0.00 | 0.00 | 71 | 1010.4 |
| 20260504040115 | 13 | 212 | 0.0 | 0.0 | 0.00 | 0.00 | 0.00 | 68 | 1010.7 |
| 20260504035612 | 13 | 212 | 0.0 | 0.0 | 0.00 | 0.00 | 0.00 | 64 | 1010.7 |
| 20260504035108 | 13 | 212 | 0.0 | 0.0 | 0.00 | 0.00 | 0.00 | 63 | 1010.7 |
| 20260504034606 | 13 | 212 | 1.6 | 0.0 | 0.00 | 0.00 | 0.00 | 64 | 1010.6 |
| 20260504034103 | 13 | 212 | 0.0 | 0.0 | 0.00 | 0.00 | 0.00 | 63 | 1010.9 |
| 20260504033601 | 13 | 212 | 0.0 | 0.0 | 0.00 | 0.00 | 0.00 | 60 | 1010.8 |
| 20260504033057 | 13 | 212 | 1.6 | 1.6 | 0.00 | 0.00 | 0.00 | 60 | 1011.0 |
| 20260504032554 | 13 | 212 | 1.6 | 1.6 | 0.00 | 0.00 | 0.00 | 61 | 1011.0 |
| 20260504032051 | 14 | 237 | 3.2 | 3.2 | 0.00 | 0.00 | 0.00 | 57 | 1011.2 |
| 20260504031548 | 15 | 263 | 3.2 | 3.2 | 0.00 | 0.00 | 0.00 | 57 | 1011.1 |
| 20260504031044 | 15 | 264 | 0.0 | 0.0 | 0.00 | 0.00 | 0.00 | 52 | 1011.2 |
| 20260504030542 | 15 | 264 | 1.6 | 1.6 | 0.00 | 0.00 | 0.00 | 53 | 1011.2 |
| 20260504030038 | 13 | 264 | 1.6 | 1.6 | 0.00 | 0.00 | 0.00 | 60 | 1011.1 |
| 20260504025535 | 14 | 23 | 3.2 | 1.6 | 0.00 | 0.00 | 0.00 | 63 | 1011.0 |
| 20260504025032 | 15 | 346 | 3.2 | 3.2 | 0.00 | 0.00 | 0.00 | 52 | 1011.2 |
| 20260504024529 | 14 | 275 | 3.2 | 1.6 | 0.00 | 0.00 | 0.00 | 59 | 1011.4 |
| 20260504024026 | 15 | 275 | 0.0 | 0.0 | 0.00 | 0.00 | 0.00 | 61 | 1010.9 |
| 20260504023522 | 14 | 275 | 0.0 | 0.0 | 0.00 | 0.00 | 0.00 | 62 | 1011.0 |
| 20260504023018 | 14 | 275 | 1.6 | 1.6 | 0.00 | 0.00 | 0.00 | 62 | 1011.3 |
| 20260504022514 | 14 | 274 | 0.0 | 0.0 | 0.00 | 0.00 | 0.00 | 64 | 1011.1 |
| 20260504022011 | 14 | 275 | 1.6 | 1.6 | 0.00 | 0.00 | 0.00 | 67 | 1011.1 |
| 20260504021509 | 15 | 274 | 0.0 | 0.0 | 0.00 | 0.00 | 0.00 | 64 | 1011.3 |
| 20260504021005 | 15 | 274 | 0.0 | 0.0 | 0.00 | 0.00 | 0.00 | 59 | 1011.2 |
| 20260504020502 | 16 | 275 | 0.0 | 0.0 | 0.00 | 0.00 | 0.00 | 51 | 1011.1 |
| 20260504015959 | 17 | 275 | 0.0 | 0.0 | 0.00 | 0.00 | 0.00 | 53 | 1011.3 |
| 20260504015455 | 18 | 274 | 0.0 | 0.0 | 0.00 | 0.00 | 0.00 | 39 | 1011.2 |
| 20260504014951 | 17 | 274 | 1.6 | 1.6 | 0.00 | 0.00 | 0.00 | 42 | 1011.2 |
| 20260504014447 | 17 | 274 | 1.6 | 1.6 | 0.00 | 0.00 | 0.00 | 48 | 1011.5 |
| 20260504013944 | 17 | 274 | 1.6 | 1.6 | 0.00 | 0.00 | 0.00 | 45 | 1011.0 |
| 20260504013443 | 17 | 274 | 0.0 | 0.0 | 0.00 | 0.00 | 0.00 | 43 | 1011.3 |
| 20260504012938 | 17 | 274 | 1.6 | 1.6 | 0.00 | 0.00 | 0.00 | 42 | 1011.5 |
| 20260504012437 | 18 | 274 | 0.0 | 0.0 | 0.00 | 0.00 | 0.00 | 47 | 1011.3 |
| 20260504011934 | 19 | 274 | 0.0 | 0.0 | 0.00 | 0.00 | 0.00 | 39 | 1011.1 |
| 20260504011430 | 19 | 274 | 0.0 | 0.0 | 0.00 | 0.00 | 0.00 | 37 | 1011.2 |
| 20260504010926 | 19 | 271 | 3.2 | 3.2 | 0.00 | 0.00 | 0.00 | 36 | 1011.5 |
| 20260504010422 | 20 | 256 | 1.6 | 1.6 | 0.00 | 0.00 | 0.00 | 37 | 1011.5 |
| 20260504005919 | 20 | 256 | 3.2 | 1.6 | 0.00 | 0.00 | 0.00 | 36 | 1011.2 |
| 20260504005415 | 20 | 255 | 3.2 | 3.2 | 0.00 | 0.00 | 0.00 | 36 | 1011.3 |
| 20260504004913 | 20 | 269 | 1.6 | 1.6 | 0.00 | 0.00 | 0.00 | 35 | 1011.2 |
| 20260504004411 | 20 | 269 | 0.0 | 0.0 | 0.00 | 0.00 | 0.00 | 34 | 1011.2 |
| 20260504003907 | 20 | 269 | 3.2 | 3.2 | 0.00 | 0.00 | 0.00 | 35 | 1011.3 |
| 20260504003404 | 20 | 259 | 1.6 | 1.6 | 0.00 | 0.00 | 0.00 | 34 | 1011.2 |
| 20260504002900 | 20 | 259 | 3.2 | 4.8 | 0.00 | 0.00 | 0.00 | 34 | 1011.5 |
| 20260504002357 | 21 | 255 | 3.2 | 3.2 | 0.00 | 0.00 | 0.00 | 34 | 1011.9 |
| 20260504001855 | 21 | 253 | 1.6 | 1.6 | 0.00 | 0.00 | 0.00 | 34 | 1011.9 |
| 20260504001352 | 21 | 270 | 3.2 | 3.2 | 0.00 | 0.00 | 0.00 | 34 | 1011.8 |
| 20260504000848 | 21 | 260 | 4.8 | 4.8 | 0.00 | 0.00 | 0.00 | 33 | 1011.5 |
| 20260504000346 | 21 | 219 | 3.2 | 1.6 | 0.00 | 0.00 | 0.00 | 33 | 1011.3 |
| 20260503235843 | 21 | 274 | 4.8 | 4.8 | 0.00 | 0.00 | 0.00 | 32 | 1011.7 |
| 20260503235341 | 21 | 256 | 3.2 | 3.2 | 0.00 | 0.00 | 0.00 | 32 | 1011.8 |